Flag for U.S.A. Weather past 2 weeks in Greensboro, North Carolina, U.S.A.

Now
67 °F

Passing clouds.


Feels Like: 67 °F
Forecast: 70 / 79 °F
Wind: 6 mph from South

Location: Piedmont Triad International Airport

Current Time: May 27, 2015 at 5:07:12 AM

Latest Report: May 27, 2015 at 3:54 AM


Visibility: 10 mi

Pressure: 30.15 "Hg

Humidity: 97%

Dew point: 66 °F

Location of GreensboroLocation

Historic Weather in Greensboro — Graph

°F

Greensboro temperature yesterday

Maximum temperature yesterday: 84 °F (at 2:54 PM)
Minimum temperature yesterday: 66 °F (at 4:54 AM)
Average temperature yesterday: 76 °F

Past Weeks' High & Low Weather Summary

 TemperatureHumidityPressure
High87 °F (May 20, 3:54 PM)100% (May 21, 8:54 AM)30.43 "Hg (May 21, 8:54 AM)
Low52 °F (May 22, 5:54 AM)27% (May 22, 5:54 PM)29.82 "Hg (May 21, 4:54 AM)
Average71 °F62%30.16 "Hg
* Reported May 12 3:54 AM — May 27 3:54 AM, Greensboro, Weather by CustomWeather, © 2015

Note: Actual official high and low records may vary slightly from our data, if they occured in-between our weather recording intervals... More about our weather records

Advertising

Greensboro weather history for previous 24 hours

 ConditionsComfort  
Time TempWeatherWind HumidityBarometerVisibility
3:54 AM
Wed, May 27
67 °FPassing clouds.6 mph97%30.15 "Hg10 mi
2:54 AM67 °FPassing clouds.6 mph93%30.16 "Hg10 mi
1:54 AM69 °FMostly cloudy.7 mph84%30.17 "Hg10 mi
12:54 AM71 °FLight rain. Partly cloudy.13 mph87%30.20 "Hg10 mi
11:54 PM
Tue, May 26
76 °FOvercast.13 mph74%30.18 "Hg10 mi
10:54 PM78 °FOvercast.12 mph62%30.17 "Hg10 mi
9:54 PM77 °FPartly cloudy.7 mph64%30.15 "Hg10 mi
8:54 PM79 °FBroken clouds.6 mph58%30.15 "Hg10 mi
7:54 PM81 °FBroken clouds.7 mph53%30.15 "Hg10 mi
6:54 PM82 °FBroken clouds.9 mph51%30.16 "Hg10 mi
5:54 PM83 °FPartly sunny.12 mph50%30.15 "Hg10 mi
4:54 PM84 °FBroken clouds.13 mph45%30.16 "Hg10 mi
3:54 PM84 °FBroken clouds.9 mph48%30.17 "Hg10 mi
2:54 PM84 °FBroken clouds.12 mph48%30.20 "Hg10 mi
1:54 PM83 °FBroken clouds.8 mph51%30.22 "Hg10 mi
12:54 PM82 °FBroken clouds.8 mph53%30.24 "Hg10 mi
11:54 AM79 °FBroken clouds.7 mph58%30.25 "Hg10 mi
10:54 AM78 °FOvercast.9 mph62%30.27 "Hg10 mi
9:54 AM74 °FPartly sunny.7 mph71%30.27 "Hg10 mi
8:54 AM71 °FPartly sunny.9 mph81%30.28 "Hg10 mi
7:54 AM69 °FBroken clouds.9 mph87%30.27 "Hg10 mi
6:54 AM66 °FPassing clouds.6 mph93%30.26 "Hg10 mi
5:54 AM66 °FPassing clouds.7 mph93%30.24 "Hg10 mi
Weather by CustomWeather, © 2015

See weather overviewHow to use our weather pages